Location: Groß Lobke
(52.2707°N, 10.0115°E)
Time: 22:24:51
(UTC+00:00)

Daily predictions for brighter satellites

Satellite Brightness Start Highest point End
(mag) Time Altitude Azimuth Time Altitude Azimuth Time Altitude Azimuth
BREEZE-M DEB (TANK) 3.3 15:39:44 10° WSW 15:42:08 53° SSE 15:47:51 10° E
ARIANE 5 R/B 3.2 15:41:51 10° ESE 15:46:18 32° ENE 15:50:50 10° N
Cosmos 2084 Rocket 3.4 15:42:49 10° NW 15:47:03 70° NE 15:51:14 10° SE
Intercosmos 24 3.7 15:43:58 10° N 15:47:51 58° ENE 15:51:21 10° SSE
NOSS 3-2 (A) 3.3 15:43:20 10° SSW 15:48:20 63° SE 15:54:25 10° NE
Cosmos 1782 3.2 15:46:23 10° SSE 15:49:41 35° E 15:53:00 10° NNE
SL-08 ROCKET BODY 4.5 15:44:17 10° N 15:50:11 60° ENE 15:56:07 10° SSE
NOSS 3-2 (C) 4.1 15:45:56 10° S 15:50:18 30° ESE 15:55:22 10° ENE
Cosmos 1656 4.0 15:45:14 10° S 15:50:40 52° ESE 15:56:11 10° NE
Cosmos 1758 Rocket 3.6 15:46:45 10° N 15:51:02 58° ENE 15:55:15 10° SSE
Cosmos 2034 Rocket 4.4 15:45:01 10° SSW 15:51:20 70° WNW 15:57:44 10° N
Cosmos 2208 Rocket 4.0 15:47:49 10° NNW 15:53:01 87° ENE 15:58:13 10° SSE
Cosmos 2098 Rocket 3.7 15:51:07 10° SSE 15:55:08 40° E 15:59:48 10° NNE
NOSS 2-2 (E) 3.4 15:52:42 10° SSW 15:55:49 41° SE 15:58:41 10° ENE
Cosmos 724 4.4 15:50:28 10° NW 15:56:35 89° SW 16:02:31 10° SE
Meteor 1-20 Rocket 4.4 15:52:24 10° N 15:57:41 47° ENE 16:02:56 10° SE
CZ-4C R/B 2.9 15:52:44 10° NW 15:59:23 82° NE 16:07:49 10° SE
Cosmos 2266 Rocket 4.2 15:54:43 10° N 16:00:40 47° ENE 16:06:30 10° SE
Cosmos 405 Rocket 2.7 15:59:16 10° NNW 16:02:31 67° W 16:05:42 10° S
CBERS-1 4.0 16:00:20 10° SSE 16:05:27 82° ENE 16:10:36 10° NNW
SMAP 3.2 16:02:23 10° SE 16:06:53 51° ENE 16:11:25 10° N
Cosmos 2297 Rocket 2.3 16:02:56 10° NNW 16:08:39 84° WSW 16:14:18 10° SSE
Landsat 7 4.0 16:07:18 10° SE 16:11:43 45° ENE 16:16:10 10° N
[s.n.66845] 3.6 16:11:22 10° N 16:12:44 13° NE 16:12:44 13° NE
[s.n.66847] 3.6 16:11:49 10° N 16:13:11 13° NE 16:13:11 13° NE
Cosmos 1626 Rocket 3.7 16:09:00 10° NNW 16:13:21 76° W 16:17:37 10° S
[s.n.66846] 3.6 16:12:13 10° N 16:13:36 13° NE 16:13:36 13° NE
[s.n.66843] 3.6 16:12:44 10° N 16:14:08 13° NE 16:14:08 13° NE
Meteor 1-28 Rocket 3.0 16:10:56 10° NNE 16:14:14 53° E 16:17:30 10° S
[s.n.66844] 3.6 16:13:11 10° N 16:14:34 13° NE 16:14:34 13° NE
[s.n.66842] 3.6 16:13:42 10° N 16:15:06 14° NE 16:15:06 14° NE
[s.n.66841] 3.5 16:14:08 10° N 16:15:33 14° NE 16:15:33 14° NE
[s.n.66840] 3.5 16:14:38 10° N 16:16:02 14° NE 16:16:02 14° NE
[s.n.66838] 3.5 16:15:06 10° N 16:16:31 14° NE 16:16:31 14° NE
[s.n.66839] 3.5 16:15:35 10° N 16:17:01 14° NE 16:17:01 14° NE
NOSS 2-2 (C) 3.2 16:14:14 10° WSW 16:17:17 49° NW 16:19:48 13° NE
[s.n.66837] 3.5 16:16:01 10° N 16:17:27 14° NE 16:17:27 14° NE
[s.n.66836] 3.5 16:16:30 10° N 16:17:57 14° NE 16:17:57 14° NE
[s.n.66835] 3.5 16:17:00 10° N 16:18:27 14° NE 16:18:27 14° NE
[s.n.66834] 3.5 16:17:29 10° N 16:18:56 14° NE 16:18:56 14° NE
[s.n.66833] 3.5 16:17:55 10° N 16:19:22 15° NE 16:19:22 15° NE
[s.n.66832] 3.5 16:18:26 10° N 16:19:54 15° NE 16:19:54 15° NE
[s.n.66831] 3.5 16:18:51 10° N 16:20:19 15° NE 16:20:19 15° NE
[s.n.66830] 3.5 16:19:17 10° N 16:20:45 15° NE 16:20:45 15° NE
[s.n.66828] 3.5 16:19:42 10° N 16:21:10 15° NE 16:21:10 15° NE
[s.n.66829] 3.4 16:20:13 10° N 16:21:42 15° NE 16:21:42 15° NE
[s.n.66827] 3.4 16:20:44 10° N 16:22:13 15° NE 16:22:13 15° NE
[s.n.66826] 3.4 16:21:13 10° N 16:22:43 15° NE 16:22:43 15° NE
Cosmos 1315 Rocket 4.0 16:19:26 10° SW 16:23:04 40° WNW 16:26:43 10° N
[s.n.66825] 3.4 16:21:39 10° N 16:23:09 15° NE 16:23:09 15° NE
[s.n.66824] 3.4 16:22:10 10° N 16:23:40 16° NE 16:23:40 16° NE
Cosmos 1606 Rocket 4.3 16:20:30 10° SSE 16:24:25 32° E 16:28:23 10° NNE
[s.n.66823] 3.4 16:22:40 10° N 16:24:10 16° NE 16:24:10 16° NE
[s.n.66822] 3.4 16:23:09 10° N 16:24:38 16° NNE 16:24:38 16° NNE
ATLAS CENTAUR R/B 3.6 16:22:26 10° WNW 16:25:02 22° WSW 16:27:34 10° S
[s.n.66821] 3.4 16:23:37 10° N 16:25:07 16° NNE 16:25:07 16° NNE
Thor Agena Rocket 3.6 16:22:40 10° SSE 16:27:53 88° WSW 16:33:04 10° NNW
Cosmos 2219 3.8 16:23:09 10° NNW 16:28:26 36° NE 16:33:43 10° ESE
Cosmos 1503 Rocket 4.2 16:23:45 10° S 16:28:49 53° ESE 16:33:38 11° NNE
CENTAUR R/B 3.2 16:24:18 10° WSW 16:30:14 53° NNW 16:36:56 13° NE
USA 290 3.6 16:29:19 10° NW 16:32:26 43° WSW 16:35:32 10° S
SL-16 R/B 2.6 16:26:19 10° NNE 16:32:36 86° WNW 16:38:47 10° SSW
Cosmos 1484 Rocket 3.8 16:29:13 10° S 16:32:36 44° W 16:35:58 10° NNW
GEOS 3 Rocket 4.0 16:28:50 15° NE 16:33:14 51° SE 16:38:28 10° SSW
Cosmos 1544 Rocket 3.7 16:29:10 10° SSW 16:33:34 78° WNW 16:38:02 10° N
AQUARIUS 4.2 16:30:34 10° SE 16:34:51 53° ENE 16:39:10 10° N
Cosmos 1844 Rocket 4.0 16:31:12 10° NNW 16:35:21 20° NNE 16:37:19 17° ENE
Lacrosse 5 rocket 1.6 16:31:57 10° W 16:35:33 44° NNW 16:37:41 21° NE
Cosmos 1980 Rocket 3.4 16:31:39 10° SSE 16:35:51 22° ESE 16:37:57 18° ENE
Meteor 1-25 Rocket 4.2 16:32:29 10° N 16:38:20 74° ENE 16:44:06 10° SSE
Meteor 1-5 Rocket 4.2 16:33:12 10° N 16:38:26 51° ENE 16:43:43 10° SSE
Cosmos 1354 Rocket 4.3 16:33:28 10° S 16:38:28 46° ESE 16:42:35 15° NE
Lacrosse 4 Rocket 3.2 16:37:19 10° W 16:40:34 23° NW 16:43:46 10° NNE
BREEZE M DEB (TANK) 3.6 16:38:54 10° SSW 16:40:36 18° SSE 16:41:17 15° SE
CORIOLIS 4.3 16:36:48 10° SSE 16:42:08 79° WSW 16:47:31 10° NNW
IRIDIUM 104 4.3 16:37:48 10° N 16:43:05 86° E 16:48:18 10° S
Cosmos 2263 Rocket 2.3 16:38:00 10° NNW 16:43:37 56° NE 16:49:12 10° SE
Cosmos 2228 4.5 16:40:36 10° SW 16:44:32 36° WNW 16:48:31 10° N
Cosmos 1777 Rocket 3.9 16:39:45 10° SSW 16:45:00 80° ESE 16:49:52 12° NNE
Cosmos 1726 Rocket 4.0 16:43:57 10° SSE 16:48:17 42° E 16:51:54 14° NNE
CZ-2D R/B 2.6 16:45:38 10° SSE 16:48:46 83° E 16:51:57 10° NNW
Okean 1-7 Rocket 3.6 16:45:58 10° NNW 16:50:23 85° W 16:54:45 10° S
USA 238 DEB 4.4 16:45:47 10° S 16:50:58 30° ESE 16:53:47 22° ENE
USA 238 4.4 16:45:55 10° S 16:51:05 29° ESE 16:53:52 22° ENE
Cosmos 44 Rocket 4.5 16:47:30 10° NW 16:51:51 27° NNE 16:53:32 23° NE
IRIDIUM 114 4.4 16:46:57 10° N 16:52:13 81° W 16:57:26 10° S
Cosmos 1602 Rocket 4.2 16:47:57 10° NNW 16:52:17 57° W 16:56:32 10° S
NOSS 3 (A) 4.0 16:50:10 10° NW 16:52:21 55° NE 16:52:32 53° ENE
ERS-1 4.4 16:49:23 10° SSE 16:54:22 84° ENE 16:59:23 10° NNW
Cosmos 1461 2.6 16:52:39 10° SW 16:56:33 81° SE 16:58:30 29° NE
USA 215 3.5 16:53:50 21° ENE 16:58:16 60° N 17:04:42 10° WNW
Cosmos 1933 3.1 16:54:33 10° S 16:58:21 72° E 17:01:21 16° NNE
Cosmos 1943 Rocket 4.3 16:57:50 10° NNW 16:59:06 11° N 17:00:22 10° NNE
Cosmos 2227 Rocket 2.4 16:54:24 10° NNW 17:00:04 77° WSW 17:05:42 10° SSE
IRS-1C 4.3 16:54:48 10° SSE 17:00:07 77° WSW 17:05:29 10° NNW
SKYMED 2 4.2 16:58:49 28° ENE 17:00:08 34° E 17:04:05 10° SSE
YAOGAN 1 2.9 16:56:53 10° SE 17:00:50 39° ENE 17:04:50 10° N
Cosmos-2242 4.2 16:57:36 10° SE 17:00:13 24° ESE 17:00:13 24° ESE
NOSS 2-3 (E) 3.9 16:59:46 10° S 17:03:05 34° SE 17:03:38 32° ESE
NOSS 2-3 (D) 4.0 17:00:28 10° S 17:03:46 32° SE 17:04:14 31° ESE
Cosmos 1486 Rocket 4.4 16:59:39 10° SW 17:04:49 62° WNW 17:09:39 12° NNE
SJ-12 4.0 17:01:11 10° S 17:04:56 68° WSW 17:08:44 10° NNW
Cosmos 2369 Rocket 4.3 17:01:54 10° WNW 17:05:35 17° NNW 17:09:18 10° NNE
Cosmos 2151 4.3 17:02:24 10° NNW 17:06:20 41° W 17:10:15 10° SSW
Cosmos 1655 Rocket 3.9 17:06:01 10° N 17:12:18 81° E 17:18:31 10° SSE
Meteor 2-10 4.1 17:08:12 10° N 17:13:31 62° ENE 17:18:58 10° SSE
Cosmos 1697 Rocket 2.6 17:10:09 10° SSW 17:15:45 79° ESE 17:19:15 24° NE
Cosmos 990 Rocket 3.8 17:10:57 10° SSW 17:16:03 75° ESE 17:19:09 25° NNE
Cosmos 1953 Rocket 3.4 17:11:43 10° N 17:16:10 80° E 17:20:37 10° SSE
CZ-4 R/B 4.2 17:12:24 10° SSE 17:16:21 80° ENE 17:20:19 10° NNW
MOS 1 Rocket 3.7 17:12:47 10° S 17:17:44 72° WSW 17:22:59 10° NNW
Aureole 1 Rocket 3.8 17:14:09 10° S 17:18:27 41° ESE 17:19:37 36° ENE
Cosmos 2278 Rocket 4.3 17:16:56 10° NNW 17:18:48 11° N 17:19:59 11° NNE
NOSS 2-2 (D) 4.2 17:22:04 10° W 17:24:47 27° NNW 17:25:11 26° NNW
ARIANE 5 R/B 3.5 17:20:17 10° S 17:25:10 48° W 17:30:10 10° NNW
Cosmos 1825 Rocket 4.3 17:21:12 10° NNW 17:25:26 52° W 17:29:38 10° S
Resurs 01 Rocket 3.7 17:29:46 15° N 17:29:46 15° N 17:30:34 10° N
Cosmos 1680 Rocket 3.8 17:26:44 10° NNW 17:31:43 43° NE 17:31:45 43° ENE
NOAA 6 4.0 17:27:32 10° SSE 17:32:32 58° ENE 17:37:32 10° N
USA 81 3.9 17:27:54 10° N 17:33:12 81° E 17:38:28 10° S
CZ-2D R/B 3.4 17:32:10 10° SSE 17:36:22 84° WSW 17:40:32 10° NNW
Radarsat Rocket 4.5 17:29:57 10° SSE 17:38:02 81° ENE 17:45:12 10° NNW
IRAS Rocket 4.1 17:33:25 10° SSE 17:38:53 78° ENE 17:44:23 10° NNW
NOSS 3-2 (A) 4.1 17:34:14 10° W 17:39:25 43° NNW 17:42:25 27° NNE
Gbstr 26 Del rocket 3.1 17:35:58 10° SW 17:39:37 51° S 17:39:37 51° S
Cosmos 1844 4.3 17:35:07 10° NNW 17:39:50 36° NE 17:39:50 36° NE
Meteor 2-2 Rocket 4.2 17:34:50 10° S 17:40:19 56° E 17:41:52 42° NE
NOSS 3-2 (C) 3.4 17:35:19 10° WSW 17:40:33 67° NW 17:43:16 34° NE
SPOT 1/Viking Rocket 3.8 17:36:56 10° S 17:42:07 68° WSW 17:47:19 10° NNW
Cosmos 1076 Rocket 4.3 17:39:20 10° NNW 17:43:32 52° W 17:47:43 10° S
PSLV R/B 3.2 17:43:06 53° SSE 17:44:01 86° ENE 17:48:06 10° NNW
[s.n.66845] 4.5 17:43:18 10° NW 17:43:44 14° NW 17:43:44 14° NW
[s.n.66847] 4.5 17:43:45 10° NW 17:44:11 14° NW 17:44:11 14° NW
[s.n.66846] 4.5 17:44:11 10° NW 17:44:36 13° NW 17:44:36 13° NW
SJ-7 4.3 17:47:21 71° NW 17:47:21 71° NW 17:50:50 10° NNW
Cosmos 2082 3.6 17:41:39 10° NNW 17:47:24 85° ENE 17:50:41 27° SSE
[s.n.66843] 4.5 17:44:43 10° NW 17:45:08 13° NW 17:45:08 13° NW
SL-19 R/B 4.2 17:42:15 10° SSE 17:47:40 90° ENE 17:53:27 10° NNW
COSMO-SKYMED 1 3.3 17:49:12 38° S 17:49:12 38° S 17:51:52 10° S
Cosmos 2058 Rocket 2.9 17:46:14 10° S 17:50:43 81° E 17:50:45 81° E
Cosmos 2227 4.4 17:50:37 10° NNW 17:55:43 51° NE 17:55:43 51° NE
Meteor 2-11 Rocket 4.3 17:53:25 10° N 17:59:37 72° ENE 18:05:45 10° SSE
Nadezhda 2 Rocket 4.3 17:55:10 10° N 18:01:20 89° WSW 18:07:27 10° S
Meteor 1-26 Rocket 3.9 17:59:16 10° S 18:04:40 85° ESE 18:05:35 63° NNE
GEOS 3 Rocket 4.3 18:09:54 41° N 18:11:13 51° NW 18:16:25 10° WSW
Cosmos 1553 Rocket 3.8 18:05:50 10° S 18:12:00 83° E 18:14:51 35° NNE
Cosmos 2219 3.8 18:07:15 10° NW 18:12:52 56° WSW 18:17:57 13° S
Lacrosse 5 rocket 3.1 18:09:32 10° WNW 18:11:16 23° NW 18:11:16 23° NW
Cosmos 1980 Rocket 2.2 18:13:35 10° SW 18:19:14 78° WNW 18:19:44 72° N
Cosmos 1844 Rocket 3.1 18:14:41 10° NNW 18:18:59 49° N 18:18:59 49° N
USA 281 4.1 18:22:44 33° NNE 18:22:44 33° NNE 18:27:03 10° NNW
CENTAUR R/B 3.8 18:16:13 10° WNW 18:22:27 36° N 18:24:02 33° NNE
Cosmos 1745 Rocket 4.0 18:19:30 10° N 18:24:47 65° N 18:24:47 65° N
Cosmos 2263 Rocket 3.8 18:22:18 10° NW 18:27:16 32° WSW 18:32:14 10° SSW
Cosmos 1898 Rocket 4.0 18:26:07 10° SSW 18:30:11 55° SW 18:30:11 55° SW
Cosmos 2369 4.2 18:26:27 10° SSW 18:30:42 52° SSW 18:30:42 52° SSW
Cosmos 44 Rocket 4.4 18:28:52 10° NW 18:32:08 40° NNW 18:32:08 40° NNW
USA 215 3.2 18:41:10 77° N 18:41:10 77° N 18:47:37 10° WNW
USA 238 DEB 3.5 18:35:00 10° SW 18:41:14 78° NW 18:41:14 78° NW
USA 238 3.5 18:35:06 10° SW 18:41:19 79° NW 18:41:19 79° NW
Cosmos 1943 Rocket 4.5 18:41:40 10° NNW 18:42:28 12° N 18:42:28 12° N
Cosmos 1697 Rocket 4.3 18:55:34 10° W 19:00:20 28° NW 19:00:59 27° NNW
CENTAUR R/B 4.4 20:07:41 10° NW 20:11:08 29° NNW 20:11:08 29° NNW
